WT9M-8 Weather Reports


Display with metric or nautical units.
time (UTC)temp
F
wind
direction
speed
MPH
gust
MPH
rain 1hr
in
rain 24hr
in
rain mn
in
humidity
%
barometer
mb
20260509231021 63 257 4.0 9.0 0.00 0.00 0.00 36 1007.8
20260509230017 64 260 4.0 10.0 0.00 0.00 0.00 36 1007.7
20260509225034 65 255 5.0 15.0 0.00 0.00 0.00 34 1007.5
20260509224030 67 268 5.0 11.0 0.00 0.00 0.00 33 1007.3
20260509223027 68 261 3.0 8.0 0.00 0.00 0.00 35 1007.2
20260509222024 70 263 5.0 14.0 0.00 0.00 0.00 33 1007.0
20260509221021 70 263 3.0 8.0 0.00 0.00 0.00 36 1006.7
20260509220017 71 254 5.0 14.0 0.00 0.00 0.00 35 1006.8
20260509215034 72 257 5.0 11.0 0.00 0.00 0.00 36 1006.8
20260509214031 72 253 4.0 15.0 0.00 0.00 0.00 34 1006.6
20260509213027 73 242 3.0 7.0 0.00 0.00 0.00 37 1006.7
20260509212024 73 276 4.0 15.0 0.00 0.00 0.00 36 1006.5
20260509211040 72 272 4.0 10.0 0.00 0.00 0.00 37 1006.5
20260509210017 71 270 4.0 11.0 0.00 0.00 0.00 38 1006.5
20260509205034 72 284 5.0 18.0 0.00 0.00 0.00 38 1006.5
20260509204030 70 271 4.0 8.0 0.00 0.00 0.00 40 1006.3
20260509203027 69 252 5.0 15.0 0.00 0.00 0.00 40 1006.3
20260509202024 68 273 3.0 11.0 0.00 0.00 0.00 40 1006.2
20260509201020 70 284 5.0 14.0 0.00 0.00 0.00 40 1006.2
20260509200017 70 250 4.0 14.0 0.00 0.00 0.00 44 1006.0
20260509195033 68 277 4.0 9.0 0.00 0.00 0.00 42 1005.9
20260509194030 69 270 6.0 17.0 0.00 0.00 0.00 44 1005.6
20260509193047 71 265 4.0 13.0 0.00 0.00 0.00 42 1005.7
20260509192023 70 254 5.0 10.0 0.00 0.00 0.00 45 1005.5
20260509191020 70 260 4.0 9.0 0.00 0.00 0.00 43 1005.4
20260509190018 70 265 5.0 14.0 0.00 0.00 0.00 44 1005.4
20260509185033 70 243 4.0 10.0 0.00 0.00 0.00 45 1005.3
20260509184032 69 255 5.0 14.0 0.00 0.00 0.00 48 1005.2
20260509183027 66 255 4.0 10.0 0.00 0.00 0.00 49 1005.3
20260509182025 67 272 5.0 15.0 0.00 0.00 0.00 47 1005.2
20260509181020 69 252 4.0 14.0 0.00 0.00 0.00 48 1005.1
20260509180116 69 263 4.0 9.0 0.00 0.00 0.00 47 1005.0
20260509175033 68 260 6.0 23.0 0.00 0.00 0.00 46 1005.2
20260509174029 69 278 6.0 17.0 0.00 0.00 0.00 45 1005.0
20260509173026 67 242 5.0 11.0 0.00 0.00 0.00 51 1005.0
20260509172023 66 256 5.0 8.0 0.00 0.00 0.00 48 1005.0
20260509171039 66 245 4.0 10.0 0.00 0.00 0.00 51 1004.8
20260509170016 65 238 5.0 8.0 0.00 0.00 0.00 48 1004.8
20260509165032 66 262 6.0 13.0 0.00 0.00 0.00 51 1004.7
20260509164029 66 270 5.0 13.0 0.00 0.00 0.00 48 1004.5
20260509163025 69 254 8.0 19.0 0.00 0.00 0.00 48 1004.2
20260509162023 69 250 6.0 11.0 0.00 0.00 0.00 50 1004.2
20260509161019 67 272 4.0 14.0 0.00 0.00 0.00 50 1004.1
20260509160035 67 238 7.0 14.0 0.00 0.00 0.00 48 1003.9
20260509155032 67 266 6.0 17.0 0.00 0.00 0.00 50 1003.8
20260509154030 66 260 5.0 13.0 0.00 0.00 0.00 47 1003.7
20260509153025 66 260 6.0 14.0 0.00 0.00 0.00 48 1003.4
20260509152022 65 273 7.0 16.0 0.00 0.00 0.00 49 1003.2
20260509151018 63 253 4.0 10.0 0.00 0.00 0.00 54 1003.2
20260509150055 62 190 5.0 10.0 0.00 0.00 0.00 60 1003.2
20260509145032 58 186 4.0 8.0 0.00 0.00 0.00 60 1003.2
20260509144028 56 184 2.0 3.0 0.00 0.00 0.00 64 1003.2
20260509143027 56 184 2.0 6.0 0.00 0.00 0.00 64 1003.2
20260509142022 56 189 1.0 2.0 0.00 0.00 0.00 67 1003.2
20260509141018 56 169 1.0 2.0 0.00 0.00 0.00 68 1003.4
20260509140034 56 229 1.0 2.0 0.00 0.00 0.00 70 1003.7
20260509135031 55 226 1.0 2.0 0.00 0.00 0.00 71 1003.6
20260509134027 55 202 1.0 3.0 0.00 0.00 0.00 73 1003.5
20260509133024 53 181 2.0 4.0 0.00 0.00 0.00 77 1003.8
20260509132022 51 188 1.0 3.0 0.00 0.00 0.00 80 1004.0
20260509131018 50 0.0 0.0 0.00 0.00 0.00 81 1003.9
20260509130034 49 342 2.0 4.0 0.00 0.00 0.00 82 1003.6
20260509125031 47 76 3.0 6.0 0.00 0.00 0.00 85 1003.4
20260509124028 44 194 1.0 4.0 0.00 0.00 0.00 86 1003.6
20260509123024 42 0.0 0.0 0.00 0.00 0.00 86 1002.8
20260509122021 40 0.0 0.0 0.00 0.00 0.00 86 1002.4
20260509121018 39 0.0 0.0 0.00 0.00 0.00 87 1002.3
20260509120114 37 0.0 0.0 0.00 0.00 0.00 86 1002.3
20260509115031 36 0.0 0.0 0.00 0.00 0.00 86 1002.2
20260509114028 35 0.0 0.0 0.00 0.00 0.00 86 1002.0
20260509113024 35 0.0 0.0 0.00 0.00 0.00 86 1001.8
20260509112022 34 0.0 0.0 0.00 0.00 0.00 86 1001.8
20260509111017 34 91 1.0 2.0 0.00 0.00 0.00 85 1002.0
20260509110034 34 0.0 0.0 0.00 0.00 0.00 85 1002.0
20260509105051 34 91 1.0 1.0 0.00 0.00 0.00 85 1001.9
20260509104047 34 91 0.0 1.0 0.00 0.00 0.00 85 1002.2
20260509103044 35 0.0 0.0 0.00 0.00 0.00 85 1002.0
20260509102021 35 0.0 0.0 0.00 0.00 0.00 85 1001.9
20260509101017 35 0.0 0.0 0.00 0.00 0.00 85 1002.0
20260509100034 36 0.0 0.0 0.00 0.00 0.00 84 1002.1
20260509095031 37 0.0 0.0 0.00 0.00 0.00 85 1002.2
20260509094027 38 0.0 0.0 0.00 0.00 0.00 85 1001.9
20260509093024 39 91 1.0 2.0 0.00 0.00 0.00 85 1001.9
20260509092040 40 91 1.0 2.0 0.00 0.00 0.00 86 1001.9
20260509091018 40 87 3.0 4.0 0.00 0.00 0.00 87 1001.8
20260509090033 40 79 4.0 6.0 0.00 0.00 0.00 87 1001.9
20260509085030 40 83 3.0 4.0 0.00 0.00 0.00 86 1001.9
20260509084027 40 78 3.0 4.0 0.00 0.00 0.00 85 1001.7
20260509083024 41 89 2.0 3.0 0.00 0.00 0.00 85 1001.7
20260509082020 41 80 2.0 3.0 0.00 0.00 0.00 84 1001.5
20260509081017 41 88 2.0 2.0 0.00 0.00 0.00 84 1001.5
20260509080053 41 83 2.0 3.0 0.00 0.00 0.00 84 1001.4
20260509075110 41 76 1.0 3.0 0.00 0.00 0.00 84 1001.5
20260509074027 42 0.0 0.0 0.00 0.00 0.00 83 1001.7
20260509073024 42 0.0 0.0 0.00 0.00 0.00 82 1001.7
20260509072102 42 0.0 0.0 0.00 0.00 0.00 83 1001.6
20260509071017 42 0.0 0.0 0.00 0.00 0.00 82 1001.7
20260509070036 43 0.0 0.0 0.00 0.00 0.00 82 1001.5
20260509065031 43 0.0 0.0 0.00 0.00 0.00 81 1001.4
20260509064046 43 0.0 0.0 0.00 0.00 0.00 81 1001.5
20260509063023 43 0.0 0.0 0.00 0.00 0.00 81 1001.5
20260509062100 43 0.0 0.0 0.00 0.00 0.00 80 1001.6
20260509061037 43 0.0 0.0 0.00 0.00 0.00 81 1001.5
20260509060033 42 0.0 0.0 0.00 0.00 0.00 80 1001.7
20260509055031 42 0.0 0.0 0.00 0.00 0.00 78 1001.5
20260509054026 42 76 0.0 2.0 0.00 0.00 0.00 78 1001.4
20260509053023 42 32 0.0 1.0 0.00 0.00 0.00 77 1001.5
20260509052059 42 306 0.0 2.0 0.00 0.00 0.00 77 1001.4
20260509051016 43 77 0.0 1.0 0.00 0.00 0.00 77 1001.5
20260509050053 43 75 2.0 3.0 0.00 0.00 0.00 76 1001.4
20260509045049 43 73 1.0 2.0 0.00 0.00 0.00 76 1001.3
20260509044026 44 93 2.0 2.0 0.00 0.00 0.00 76 1001.3
20260509043023 44 79 2.0 3.0 0.00 0.00 0.00 75 1001.4
20260509042040 45 76 1.0 2.0 0.00 0.00 0.00 73 1001.5
20260509041056 46 77 0.0 1.0 0.00 0.00 0.00 72 1001.4
20260509040033 46 71 1.0 3.0 0.00 0.00 0.00 73 1001.6
20260509035029 46 78 1.0 1.0 0.00 0.00 0.00 71 1001.8
20260509034026 46 0.0 0.0 0.00 0.00 0.00 70 1001.8
20260509033022 46 62 0.0 2.0 0.00 0.00 0.00 71 1001.5
20260509032019 47 113 0.0 1.0 0.00 0.00 0.00 68 1001.8
20260509031036 48 96 1.0 2.0 0.00 0.00 0.00 68 1001.9
20260509030032 49 74 1.0 2.0 0.00 0.00 0.00 68 1001.9
20260509025031 49 0.0 0.0 0.00 0.00 0.00 67 1002.1
20260509024146 49 0.0 0.0 0.00 0.00 0.00 66 1002.0
20260509023022 49 0.0 0.0 0.00 0.00 0.00 64 1001.9
20260509022019 50 94 1.0 2.0 0.00 0.00 0.00 63 1001.7
20260509021056 51 94 1.0 2.0 0.00 0.00 0.00 63 1001.8
20260509020052 51 98 1.0 2.0 0.00 0.00 0.00 62 1001.8
20260509015049 52 0.0 0.0 0.00 0.00 0.00 60 1001.8
20260509014027 53 84 1.0 3.0 0.00 0.00 0.00 60 1001.7
20260509013022 54 74 2.0 3.0 0.00 0.00 0.00 60 1001.6
20260509012018 55 77 1.0 2.0 0.00 0.00 0.00 56 1001.7
20260509011055 57 82 3.0 4.0 0.00 0.00 0.00 56 1001.7
20260509010031 59 89 3.0 6.0 0.00 0.00 0.00 53 1001.7
20260509005048 61 79 3.0 4.0 0.00 0.00 0.00 49 1001.7
20260509004025 63 82 3.0 4.0 0.00 0.00 0.00 46 1001.7
20260509003021 65 78 2.0 3.0 0.00 0.00 0.00 42 1001.7
20260509002038 67 168 1.0 4.0 0.00 0.00 0.00 35 1001.8
20260509001036 68 193 3.0 4.0 0.00 0.00 0.00 33 1001.9
20260509000031 68 220 4.0 9.0 0.00 0.00 0.00 33 1002.0
20260508235028 68 242 3.0 6.0 0.00 0.00 0.00 33 1002.0
20260508234024 68 207 2.0 4.0 0.00 0.00 0.00 32 1002.2
20260508233021 69 199 3.0 6.0 0.00 0.00 0.00 30 1002.2
20260508232017 69 220 3.0 8.0 0.00 0.00 0.00 31 1002.3